Погода в Орше

Погода в Орше : погода сейчас, прогноз погоды и архив. Всё, что Вы хотите узнать о погоде в Орше!

Хотите узнать прогноз погоды в Орше? Тогда Вам сюда: Погода в Орше

Поиск расширенной информации на нашем сайте:

Другие новости

Новости СМИ2

Главная страница сайта

Новости сайта

03.07.2017

Напоминаем, что на нашем специализированном сайте Метеоцентр.Азия вы можете получить высокодетализированные автоматические прогнозы погоды по пунктам России, СНГ и мира в авиационном формате (включающие направление и скорость ветра, видимость, явления погоды, количество и форму облачности, нижнюю и верхнюю границу облачности).


Погода в Орше - сегодня

Время (UTC), дата Ветер
(°,м/с) 
Видим.   Явления Облачность Т
(°С)
Тd
(°С)
f(%) Тe
(°С)
Pmin
(гПа)
dP
(гПа)
Po
(мм)
O2
(г/м3)
Тmin Tmax R s Состояние
почвы
06 12.12.17 140 (ЮВ) 5{10}  3300 м  дымка  10/10 180 м 
[St]
-1.1 -1.8 95 -4  1006.2  -1  737  298  -2.5      10  равномерный
сухой снег
100% 
09 12.12.17 160 (Ю) 4800 м  дымка{дождь}  10/10 210 м 
[St]
+0.3 -0.5 94 -3  1004.9  -1  737  296           
12 12.12.17 180 (Ю) 5000 м  дымка{дождь}  10/10 210 м 
[St]
+1.2 +0.4 94 -1  1004.2  -0.7  736  295           
15 12.12.17 180 (Ю) 6{10}  6000 м  дымка  10/10 240 м 
[St]
+1.4 +0.3 92 -2  1004.4  0.2  736  295      0.0     
18 12.12.17 160 (Ю) 5{11}  8000 м  дымка  9/9 1230 м 
[Sc]
+2.2 +0.9 91 1004.4  0.1  736  294    +2.2  0.0   
21 12.12.17 180 (Ю) 8000 м  дымка  10/0 средняя 
[Ac As]
+2.6 +1.6 93 +1  1005.9  1.4  737  294           
00 13.12.17 210 (ЮЗ) 8000 м  дымка  6/0 средняя 
[As trans]
+3 +2.5 97 +2  1006  0.2  737  294           
03 13.12.17 230 (ЮЗ) 8000 м  дымка  8/0 средняя 
[Ac As]
+4.1 +2.1 87 +2  1007.5  1.6  739  293         
06 13.12.17 250 (З) 10 км    10/0 средняя 
[As op]
+2.8 -1.7 72 +1  1009.7  740  295  +2      мокрый или
старый снег
50-90% 
09 13.12.17 220 (ЮЗ) 10 км    9/0 средняя 
[Ac As]
+2.3 -2 73 +1  1011.6  1.8  742  296           
12 13.12.17 230 (ЮЗ) 10 км    9/0 средняя 
[Ac As]
+2.1 -1.9 75 +1  1012.2  0.6  742  297           
15 13.12.17 240 (ЮЗ) 10 км    8/0 средняя 
[Ac trans]
+0.8 -1.8 83 +1  1013.5  1.1  743  299           
18 13.12.17 240 (ЮЗ) 10 км    ясно 
-1 -3.2 85 -2  1013.8  0.2  743  301    +2.8    130   
21 13.12.17 тихо ()   6000 м  дымка  ясно 
-3.6 -4.4 94 -4  1013.8  -0.2  743  304           
00 14.12.17 тихо ()   5000 м  дымка  9/5 600 м средняя 
[Sc|Ac trans]
-3.4 -4.2 94 -3  1013.3  -0.5  742  303           
03 14.12.17 тихо ()   1600 м  дымка  ясно 
-4.3 -4.5 99 -4  1011.4  -2  741  304         
06 14.12.17 140 (ЮВ) 8000 м  дымка  8/3 1000 м средняя 
[Sc|Ac trans]
-6.1 -6.9 94 -6  1009.8  -1.7  740  306  -6.1      мокрый или
старый снег
50-90% 
09 14.12.17 160 (Ю) 8000 м  дымка  9/6 700 м средняя 
[Sc|As trans]
-3.4 -4.8 90 -5  1008.4  -1.1  739  302           
12 14.12.17 150 (ЮВ) 6000 м  дымка  8/0 средняя 
[Ac As]
-1.6 -2.4 94 -4  1004.8  -3.3  736  299           
15 14.12.17 160 (Ю) 6000 м  дымка  10/10 330 м 
[St]
-1.1 -1.8 95 -3  1004.3  -0.5  736  298           
18 14.12.17 150 (ЮВ) 6000 м  дымка  10/10 270 м 
[St]
-0.4 -1.3 94 -3  1002.9  -1.3  735  297    -0.4     
21 14.12.17 150 (ЮВ) 5000 м  слаб. снег  10/10 300 м 
[Frnb|Ns]
-0.5 -1.1 96 -4  1001.4  -1.5  734  296           
00 15.12.17 170 (Ю) 5{10}  8000 м  дымка{снег}  10/10 270 м 
[St]
-0.2 -1.4 92 -3  1000.9  -0.4  734  296           
03 15.12.17 170 (Ю) 4{11}  8000 м  дымка  10/10 330 м 
[St]
+0.9 -0.2 92 -1  1001.2  0.3  734  295      0.8   
06 15.12.17 180 (Ю) 8000 м  дымка  9/9 800 м 
[Sc]
+1.1 -0.9 86 -1  1003.8  2.6  736  295  -0.8    0.8  равномерный
мокрый или
старый снег
100% 
Время (UTC), дата Ветер
(°,м/с) 
Видим.   Явления Облачность Т
(°С)
Тd
(°С)
f(%) Тe
(°С)
Pmin
(гПа)
dP
(гПа)
Po
(мм)
O2
(г/м3)
Тmin Tmax R s Состояние
почвы

Для получения пояснительной информации подведите курсор к названию столбца.

ПОГОДА в Орше - архив

Всё, что Вы хотите узнать о погоде в Орше - удобно и подробно!

Выберите нужную дату (начиная с 1 января 2015* года) и нажмите кнопку "Найти".
Будут отображены архивные сводки погоды по пункту Орша, начиная с указанной даты.


Отображать данные в формате CSV (для использования в таблицах Excel)


Внимание! Наш архив погоды предназначен исключительно для личного некоммерческого использования в познавательных целях. Если Вам необходимы официальные справки о состоянии погоды (для производственных, юридических, коммерческих и т.п. целей), обращайтесь в органы Росгидромета.

*Примечание: данная дата относится к архиву по метеостанциям СССР (Россия, СНГ, Балтия).
Архив по метеостанциям Зарубежной Европы и Азии (кроме Китая) хранится 10 дней, по другим регионам земного шара (Китай, Африка, Америка, Австралия, Океания) - 1 день.

Орша - район местоположения метеостанции


Название, широта, долгота, высота метеостанции:
Орша 55°ш. 30.4°д. 185 м над ур. моря [Беларусь]

Дополнительная информация

В oтличие oт бoльшинства пoгoдных сайтoв мы публикуем пoдрoбную метеoинфoрмацию в детальнoм прoфессиoнальнoм фoрмате.

Характеристики температуры и влажнoсти вoздуха измеряются на высoте 2 м в тени вдали oт зданий и деревьев.
Скoрoсть ветра измеряется на высoте 10 м (на урoвне рoста челoвека скoрoсть ветра ниже в 1.5-2 раза). Если метеoстанция нахoдится в гoрoде или в лесу, тo скoрoсть ветра занижена на 2-4 м/с пo сравнению с oткрытым местoм. Скoрoсть ветра над акватoриями крупных рек и oзёр, а также на вершинах хoлмoв на 2-5 м/с выше, чем в oбычных услoвиях.
Атмoсфернoе давление в разных тoчках местнoсти мoжет значительнo oтличаться oт давления на метеoстанции, в зависимoсти oт услoвий рельефа (при пoдъёме на 10 м давление пoнижается примернo на 1 мм рт.ст.).